Wind_Speed
14 15 14 13 13 13 13 12 12 11 12 12 13 12 12 12 12 11 10 10 9 8 9 10 11 11 12 12 12 13 14 14 14 15 16 16 17 19 19 20 21 21 23 24
16 16 16 15 14 14 14 14 13 12 12 13 13 13 13 13 12 11 10 9 9 9 9 9 10 10 11 11 11 12 13 14 15 15 15 15 16 17 18 18 18 19 21 21
17 18 19 17 16 15 15 15 14 13 12 13 13 13 13 13 12 11 10 10 9 9 10 9 10 10 11 11 11 12 13 14 15 15 15 15 15 16 17 17 17 18 18 17
21 20 21 19 18 17 16 16 15 14 14 14 14 13 13 13 12 12 11 11 10 10 10 10 11 11 12 13 13 13 14 15 16 17 16 16 16 16 17 17 18 19 19 19
24 23 21 20 19 19 18 17 16 16 16 15 15 14 14 14 13 12 12 11 11 11 11 11 11 12 13 14 15 16 15 16 16 17 17 16 16 17 17 18 18 19 19 20
26 25 23 20 19 20 21 20 19 18 17 17 16 16 15 15 15 14 13 13 13 13 14 13 14 14 14 14 15 16 16 16 17 17 18 18 18 18 19 19 19 19 20 21
28 28 25 23 21 21 22 22 22 21 20 19 19 18 17 17 17 16 16 15 15 15 15 15 15 15 16 16 17 17 18 18 18 18 19 19 20 20 20 20 20 21 22 23
30 30 28 26 25 25 24 24 24 23 23 22 21 20 20 20 19 19 19 18 17 17 17 17 17 17 18 18 19 19 20 20 20 20 21 21 21 22 22 21 22 23 23 24
34 32 30 29 29 28 28 27 27 26 24 24 23 22 21 21 21 21 21 21 20 19 19 19 19 19 20 21 21 21 21 21 20 20 21 22 22 23 23 23 24 24 24 25
36 32 31 32 31 31 31 30 29 27 26 26 25 24 23 23 22 22 22 23 23 22 22 21 21 21 21 22 22 22 22 23 23 22 23 24 25 25 25 25 25 26 27 28
36 34 34 34 34 33 32 32 31 29 28 28 27 27 26 25 24 24 24 24 24 24 24 24 23 23 22 23 23 23 24 24 25 25 25 25 25 25 26 26 27 27 28 29
37 35 36 35 35 35 34 33 32 32 30 29 29 28 27 27 26 26 25 25 25 26 26 26 26 25 24 24 24 25 25 26 27 27 27 27 28 28 29 29 29 30 30 30
39 38 39 38 36 36 36 35 34 34 33 33 31 31 30 29 28 28 27 26 26 27 27 27 27 27 27 27 27 27 28 28 29 29 30 30 30 31 31 32 32 32 32 33
40 41 41 39 38 37 37 36 36 36 36 35 34 33 32 31 30 30 30 29 28 29 29 29 29 29 29 29 29 30 30 31 31 31 32 32 32 33 33 34 34 34 35 35
40 42 42 41 39 38 38 38 37 37 36 37 36 35 34 33 32 32 32 31 31 31 31 31 31 31 32 32 32 32 32 33 33 33 34 34 34 34 35 35 35 35 36 36
42 42 42 41 40 39 39 38 37 37 37 37 37 37 36 35 35 34 34 33 32 32 33 33 33 34 34 34 34 34 34 34 35 35 36 36 36 36 36 36 36 37 37 38
44 43 42 41 40 39 39 38 38 37 37 37 37 37 37 36 36 35 35 36 35 35 35 35 35 36 36 35 35 35 36 36 36 37 37 37 37 38 38 38 38 38 38 38
43 43 43 41 40 39 39 38 38 38 38 38 38 37 37 37 37 36 37 37 37 37 36 36 36 37 37 37 37 37 37 37 38 38 39 39 38 39 39 39 39 39 39 39
41 41 42 42 41 40 39 38 38 39 38 38 38 37 37 37 37 37 38 38 38 38 38 38 38 38 39 39 39 38 38 38 39 39 39 39 39 39 39 39 38 39 39 39
39 39 39 40 40 39 39 39 39 38 38 38 37 37 37 37 38 38 38 38 38 39 39 40 40 39 39 39 39 39 39 39 39 39 39 39 39 39 38 38 38 38 38 38
36 37 37 37 38 38 38 38 39 38 38 38 37 37 37 37 38 38 38 38 39 39 40 40 40 39 39 39 39 39 39 39 38 38 38 38 38 37 37 37 36 36 36 37
34 34 35 35 36 36 36 36 36 36 37 37 37 37 37 37 37 37 37 38 38 39 39 39 39 39 39 39 39 39 39 39 38 37 37 37 36 36 36 36 35 36 36 36
33 34 34 33 33 34 34 34 34 35 35 35 36 36 36 37 37 37 37 37 37 37 37 37 38 38 38 37 37 37 37 37 36 36 35 35 35 35 35 35 35 35 36 36
35 35 34 34 33 33 33 34 34 34 34 35 35 36 36 36 36 36 37 37 37 37 36 36 36 35 35 35 35 35 35 35 35 35 35 35 35 35 34 34 34 35 35 36
36 35 35 35 35 34 34 33 33 34 34 34 35 35 35 34 35 36 36 36 36 36 36 35 34 34 34 34 34 34 34 34 34 34 34 34 34 34 34 34 34 35 35 35
37 36 35 36 35 34 34 33 34 34 34 33 33 33 33 33 33 34 34 34 34 34 34 33 32 32 32 33 33 33 34 34 35 35 35 35 35 34 34 35 35 35 35 35
36 36 35 35 35 34 33 33 33 34 33 33 32 32 32 32 32 32 32 31 31 31 31 32 31 31 31 31 32 32 33 34 34 34 34 34 34 34 34 34 34 34 34 35
Wind_Direction
307 304 303 302 300 298 298 302 303 301 299 301 302 303 302 303 300 295 289 282 275 265 257 253 249 248 251 248 246 242 239 241 243 245 248 251 253 254 256 258 259 258 259 262
302 300 298 297 296 294 294 296 298 300 302 300 299 301 300 300 299 297 292 282 272 263 261 256 251 252 252 244 242 241 240 244 246 248 252 255 255 256 257 258 261 260 260 263
296 295 294 293 293 289 289 290 292 296 301 300 301 301 300 300 299 294 287 277 273 265 258 257 255 253 252 247 246 244 245 247 249 250 253 255 255 255 256 258 260 259 261 266
291 290 290 294 288 283 281 283 285 288 293 296 299 300 298 296 295 291 285 277 269 263 261 260 258 256 253 250 248 248 249 251 254 255 257 258 259 260 260 259 261 263 266 270
291 290 289 288 285 280 277 276 279 282 286 288 290 293 293 291 292 291 285 279 270 263 263 262 260 256 255 251 250 250 253 253 253 255 256 259 262 262 264 265 265 267 272 277
289 289 289 288 282 277 275 272 273 277 280 281 283 284 284 285 285 286 283 277 270 266 263 263 261 258 255 253 252 253 253 254 255 256 255 259 262 263 265 267 267 271 275 279
286 286 286 286 282 278 276 277 274 273 275 277 279 280 279 278 281 280 279 277 273 269 265 263 262 259 256 253 253 254 254 256 258 257 258 261 261 262 264 267 270 273 276 280
282 283 283 283 280 276 274 274 274 272 272 272 274 274 275 277 279 278 277 275 272 270 267 264 264 263 261 259 258 258 257 257 259 259 261 263 263 263 263 268 272 275 278 282
278 279 279 279 277 275 273 271 272 271 270 270 269 271 271 274 275 276 274 272 271 268 267 268 267 266 265 262 260 259 258 258 259 260 262 263 264 265 266 270 272 275 279 283
275 273 272 273 273 272 270 269 270 269 268 267 268 268 268 270 273 275 273 270 268 267 267 268 270 270 268 265 261 259 259 259 259 262 264 264 265 267 270 272 275 276 279 283
274 272 269 269 270 270 269 267 266 266 267 267 268 268 267 268 269 272 271 269 267 265 264 266 268 269 270 267 261 259 259 260 261 263 266 266 266 268 271 274 276 279 281 284
274 271 269 268 268 267 266 265 264 264 265 267 267 266 266 267 267 268 270 267 265 263 263 264 266 268 268 269 266 264 263 263 263 265 267 268 268 269 271 273 276 279 282 284
272 269 267 267 266 266 265 264 264 264 264 265 265 265 265 265 265 266 267 266 264 263 263 264 265 266 267 269 270 268 266 266 266 267 268 269 269 270 271 273 276 279 281 283
268 268 266 265 265 264 264 264 264 264 264 264 265 265 264 263 263 264 265 266 264 264 264 264 265 266 267 268 269 269 268 267 267 267 268 269 270 270 271 273 276 278 281 283
266 265 265 264 263 263 263 262 262 263 264 263 263 263 263 263 263 263 263 264 265 265 265 265 265 266 266 268 269 270 269 268 268 268 269 269 270 271 272 274 276 278 281 283
265 263 263 263 263 261 260 259 260 261 263 263 262 261 261 262 263 263 262 263 264 266 266 265 266 266 267 268 269 270 270 269 269 269 269 270 270 271 272 274 276 278 280 282
266 263 263 262 261 260 259 259 259 260 262 263 263 261 260 262 263 263 262 262 263 265 266 267 267 267 268 269 269 270 270 269 270 270 271 271 271 272 272 274 276 278 279 281
268 266 264 263 261 260 259 259 259 260 261 263 263 262 261 261 262 262 263 263 264 265 266 268 268 268 268 269 270 270 270 270 270 271 271 271 271 272 272 274 276 277 279 280
266 266 265 263 262 261 259 257 257 258 261 262 262 262 262 261 261 261 263 265 266 266 266 267 269 269 269 270 270 270 270 270 270 271 271 271 272 272 273 274 275 276 278 280
266 266 265 263 261 261 258 256 256 258 260 261 262 263 262 261 260 262 263 265 266 266 266 267 268 269 270 270 270 270 270 270 270 270 271 272 272 272 272 274 275 276 278 279
266 265 264 262 260 258 257 257 257 259 260 261 262 263 262 261 261 263 265 266 266 266 267 268 269 269 269 269 269 269 270 270 270 270 270 271 271 271 272 273 275 276 277 279
264 263 263 262 260 258 257 257 258 259 260 261 263 263 262 262 263 265 266 267 268 269 269 270 270 270 269 269 269 268 269 269 269 269 269 270 271 271 271 272 274 276 277 279
261 262 262 261 260 259 258 259 260 261 262 263 264 263 263 264 265 266 267 268 269 270 270 270 270 270 269 269 268 267 267 266 266 267 268 269 270 271 272 273 274 276 278 280
260 261 260 259 259 259 259 259 259 261 263 264 264 265 265 265 266 267 267 268 269 270 271 271 270 270 269 270 268 266 266 266 265 265 267 269 271 273 273 274 276 278 279 281
259 259 259 258 258 259 258 258 259 261 264 265 266 266 267 267 268 268 269 269 269 270 270 270 269 269 269 270 269 267 266 265 265 265 267 269 271 273 274 275 277 279 280 282
256 256 257 258 258 258 257 258 259 261 263 266 267 267 267 268 269 270 270 270 270 270 270 269 269 270 270 270 270 268 267 266 266 266 267 269 270 272 274 276 278 280 281 283
255 254 255 256 257 258 258 258 259 261 263 265 266 266 266 267 268 269 270 270 270 270 270 270 270 271 272 271 270 269 268 267 267 267 268 270 271 272 273 275 277 279 281 283
Height
5673 5671 5669 5667 5665 5663 5661 5660 5658 5657 5654 5653 5650 5648 5646 5643 5641 5639 5638 5636 5635 5634 5634 5633 5633 5634 5634 5634 5635 5636 5638 5640 5641 5643 5644 5645 5646 5647 5648 5648 5649 5650 5650 5651
5670 5667 5664 5663 5662 5660 5658 5656 5654 5652 5651 5649 5647 5644 5642 5640 5638 5636 5634 5633 5632 5632 5631 5631 5631 5631 5631 5631 5632 5633 5635 5636 5637 5638 5639 5640 5641 5642 5642 5643 5644 5644 5645 5645
5665 5663 5660 5659 5658 5655 5654 5652 5650 5648 5648 5645 5643 5641 5638 5636 5634 5632 5631 5630 5629 5628 5628 5628 5628 5628 5628 5628 5629 5630 5631 5632 5633 5634 5635 5635 5636 5637 5637 5638 5638 5638 5638 5639
5658 5658 5655 5657 5653 5651 5649 5647 5646 5644 5643 5641 5639 5637 5635 5633 5631 5629 5627 5627 5626 5625 5625 5624 5624 5624 5624 5625 5625 5626 5627 5628 5629 5629 5630 5631 5631 5632 5632 5632 5633 5633 5632 5632
5652 5649 5648 5650 5647 5644 5643 5642 5641 5639 5638 5636 5634 5632 5631 5629 5627 5625 5624 5623 5622 5621 5621 5621 5620 5620 5620 5620 5621 5622 5622 5623 5624 5624 5625 5625 5626 5626 5626 5626 5627 5626 5626 5626
5644 5642 5641 5644 5641 5638 5637 5636 5635 5633 5632 5631 5629 5628 5627 5624 5623 5621 5620 5618 5618 5617 5617 5616 5616 5616 5616 5616 5616 5617 5617 5618 5618 5619 5620 5620 5620 5621 5621 5621 5620 5620 5620 5619
5636 5633 5634 5636 5633 5631 5630 5631 5628 5626 5626 5625 5623 5623 5621 5619 5617 5616 5615 5614 5613 5612 5612 5611 5611 5611 5611 5611 5611 5611 5612 5612 5613 5613 5614 5614 5614 5614 5614 5614 5614 5614 5613 5612
5627 5625 5628 5627 5624 5623 5622 5621 5619 5618 5618 5617 5617 5615 5615 5613 5612 5611 5610 5609 5608 5607 5606 5606 5606 5605 5605 5605 5605 5605 5606 5606 5606 5607 5607 5607 5607 5607 5608 5607 5607 5606 5606 5605
5619 5620 5618 5616 5614 5613 5612 5611 5610 5610 5610 5609 5609 5608 5607 5607 5605 5604 5603 5603 5602 5601 5601 5600 5599 5599 5598 5598 5598 5599 5599 5599 5599 5600 5600 5600 5600 5600 5600 5600 5600 5599 5598 5597
5606 5608 5607 5604 5603 5602 5602 5601 5601 5601 5601 5601 5600 5600 5600 5599 5598 5597 5596 5596 5595 5595 5594 5594 5593 5592 5591 5591 5591 5591 5592 5592 5592 5593 5593 5593 5593 5593 5593 5592 5592 5591 5590 5588
5593 5595 5594 5593 5592 5591 5591 5590 5591 5591 5591 5591 5591 5591 5591 5591 5590 5589 5588 5588 5587 5587 5587 5586 5586 5585 5584 5584 5583 5583 5584 5584 5585 5585 5585 5585 5585 5585 5585 5584 5583 5583 5581 5579
5581 5583 5580 5581 5581 5580 5579 5580 5580 5580 5581 5581 5581 5582 5582 5581 5581 5580 5580 5579 5579 5579 5579 5578 5578 5577 5577 5576 5576 5576 5576 5576 5576 5576 5576 5576 5576 5576 5575 5575 5574 5573 5571 5570
5568 5568 5567 5568 5568 5568 5567 5568 5569 5569 5570 5570 5571 5571 5571 5571 5571 5571 5571 5570 5570 5570 5570 5570 5570 5569 5569 5568 5568 5568 5567 5567 5567 5567 5567 5567 5567 5566 5566 5565 5564 5563 5561 5559
5555 5553 5553 5555 5555 5555 5556 5556 5557 5557 5558 5559 5559 5560 5560 5561 5561 5561 5561 5561 5560 5560 5561 5560 5560 5560 5560 5559 5559 5558 5558 5558 5558 5558 5557 5557 5556 5556 5555 5554 5553 5552 5550 5549
5541 5538 5538 5540 5541 5542 5543 5543 5544 5546 5546 5547 5547 5548 5549 5550 5550 5550 5550 5550 5550 5550 5550 5550 5550 5550 5550 5549 5549 5548 5548 5548 5547 5547 5547 5546 5546 5545 5544 5544 5543 5541 5539 5537
5525 5524 5524 5526 5527 5529 5529 5530 5532 5533 5534 5535 5535 5536 5537 5537 5538 5538 5539 5539 5539 5539 5540 5540 5540 5539 5539 5538 5538 5538 5537 5537 5537 5536 5536 5535 5534 5534 5533 5532 5531 5529 5528 5526
5509 5510 5511 5512 5514 5515 5516 5518 5519 5521 5522 5523 5523 5524 5524 5525 5526 5526 5526 5527 5527 5528 5528 5528 5528 5527 5527 5527 5526 5526 5525 5525 5525 5524 5524 5523 5523 5522 5521 5520 5519 5517 5516 5514
5495 5496 5497 5499 5500 5502 5504 5505 5506 5508 5509 5510 5511 5511 5512 5513 5514 5514 5514 5514 5515 5515 5516 5516 5515 5515 5515 5515 5514 5514 5513 5513 5512 5512 5511 5511 5510 5509 5508 5507 5506 5505 5503 5501
5481 5482 5484 5485 5487 5488 5491 5492 5493 5495 5496 5497 5498 5499 5500 5500 5501 5501 5502 5502 5502 5503 5503 5502 5503 5502 5502 5502 5501 5501 5500 5500 5499 5499 5498 5498 5497 5496 5495 5494 5493 5492 5490 5489
5469 5470 5471 5472 5474 5475 5477 5479 5480 5482 5483 5484 5485 5486 5487 5487 5487 5488 5488 5489 5489 5489 5489 5489 5489 5489 5488 5488 5487 5487 5487 5486 5486 5486 5485 5485 5484 5483 5483 5481 5480 5479 5478 5476
5456 5457 5458 5459 5461 5462 5464 5466 5468 5469 5471 5472 5473 5473 5474 5474 5474 5475 5475 5476 5475 5475 5475 5475 5475 5475 5475 5474 5474 5474 5473 5473 5473 5473 5472 5472 5471 5470 5470 5469 5468 5467 5466 5464
5443 5444 5446 5447 5448 5450 5451 5453 5455 5457 5458 5459 5460 5461 5461 5462 5462 5462 5462 5462 5462 5462 5462 5462 5461 5461 5461 5460 5460 5460 5460 5460 5460 5460 5459 5459 5459 5458 5457 5457 5456 5455 5454 5452
5432 5433 5434 5435 5436 5438 5440 5441 5443 5444 5445 5446 5447 5448 5448 5449 5449 5449 5450 5449 5448 5449 5448 5448 5448 5447 5447 5447 5447 5447 5447 5447 5447 5447 5447 5447 5447 5446 5446 5445 5444 5443 5442 5441
5420 5421 5422 5424 5425 5427 5428 5429 5431 5432 5433 5434 5435 5435 5435 5436 5436 5436 5436 5436 5436 5436 5436 5435 5435 5435 5434 5434 5434 5434 5435 5435 5435 5436 5436 5436 5435 5435 5434 5433 5432 5431 5430 5429
5407 5409 5410 5412 5413 5415 5416 5417 5419 5420 5421 5422 5422 5423 5423 5423 5424 5424 5424 5424 5424 5424 5424 5423 5423 5423 5422 5422 5422 5422 5423 5423 5424 5424 5424 5424 5424 5424 5423 5422 5421 5420 5419 5417
5394 5396 5398 5399 5401 5402 5404 5405 5407 5408 5409 5410 5411 5411 5411 5411 5412 5412 5412 5412 5412 5412 5411 5411 5411 5411 5411 5411 5411 5411 5411 5412 5412 5413 5413 5413 5412 5412 5412 5411 5410 5409 5407 5406
5381 5383 5385 5387 5389 5390 5392 5393 5395 5396 5397 5398 5399 5399 5400 5400 5400 5400 5400 5400 5400 5400 5400 5400 5400 5400 5399 5399 5399 5400 5400 5401 5401 5401 5401 5401 5401 5401 5400 5400 5399 5397 5396 5395